Fort Madison, IA

9:29 AM CDT on April 23, 2018 (GMT -0500)
Fort Madison Municipal

Weather History for KFSW - February, 2014

Change the Weather History Date:

Saturday, February 1, 2014

  Actual Average Record
Temperature  
Mean Temperature 20 °F -  
Max Temperature 24 °F 34 °F 55 °F (1968)
Min Temperature 17 °F 16 °F -11 °F (1979)
Degree Days  
Heating Degree Days 44    
Moisture  
Dew Point 15 °F    
Average Humidity 82    
Maximum Humidity 93    
Minimum Humidity 68    
Precipitation  
Precipitation 0.00 in - - ()
Sea Level Pressure  
Sea Level Pressure 29.98 in    
Wind  
Wind Speed 8 mph (North)    
Max Wind Speed 15 mph    
Max Gust Speed 20 mph    
Visibility 6 miles    
Events Snow    
Averages and records for this station are not official NWS values.
T = Trace of Precipitation, MM = Missing Value Source: NWS Daily Summary

Daily Weather History Graph

Daily Weather History Graph

Search for Another Location

Airport or City:

Astronomy

Feb. 01, 2014 Rise Set
Actual Time 7:15 AM CST 5:23 PM CST
Civil Twilight 6:46 AM CST 5:52 PM CST
Nautical Twilight 6:13 AM CST 6:24 PM CST
Astronomical Twilight 5:41 AM CST 6:56 PM CST
Moon 8:04 AM CST (2/1) 7:59 PM CST (2/1)
Length of Visible Light 11h 05m
Length of Day
10h 08m
Waxing Crescent, 5% of the Moon is Illuminated
Feb 1
Waxing Crescent
Feb 6
First Quarter
Feb 14
Full
Feb 22
Last Quarter
Mar 1
New

Hourly Weather History & Observations

Time (CST) Temp. Windchill Dew Point Humidity Pressure Visibility Wind Dir Wind Speed Gust Speed Precip Events Conditions
12:15 AM 17.6 °F 8.2 °F 12.2 °F 79% 30.00 in 2.5 mi ENE 6.9 mph - N/A Snow Light Snow
12:35 AM 17.6 °F 9.3 °F 12.2 °F 79% 29.99 in 7.0 mi ENE 5.8 mph - N/A   Overcast
12:55 AM 17.6 °F 12.3 °F 12.2 °F 79% 30.00 in 7.0 mi NE 3.5 mph - N/A   Overcast
1:15 AM 17.6 °F 9.3 °F 12.2 °F 79% 29.99 in 7.0 mi ENE 5.8 mph - N/A   Overcast
1:35 AM 17.6 °F 7.3 °F 14.0 °F 86% 29.96 in 3.0 mi ENE 8.1 mph - N/A Snow Light Snow
1:55 AM 17.6 °F 9.3 °F 12.2 °F 79% 29.95 in 2.5 mi ENE 5.8 mph - N/A Snow Light Snow
2:15 AM 17.6 °F 8.2 °F 12.2 °F 79% 29.93 in 0.8 mi NE 6.9 mph - N/A Snow Snow
2:35 AM 17.6 °F 7.3 °F 12.2 °F 79% 29.91 in 1.0 mi NE 8.1 mph - N/A Snow Light Snow
2:55 AM 17.6 °F 9.3 °F 14.0 °F 86% 29.93 in 1.0 mi NE 5.8 mph - N/A Snow Snow
3:15 AM 17.6 °F 12.3 °F 14.0 °F 86% 29.94 in 0.8 mi NE 3.5 mph - N/A Snow Snow
3:35 AM 17.6 °F 12.3 °F 14.0 °F 86% 29.94 in 0.8 mi NNE 3.5 mph - N/A Snow Snow
3:55 AM 17.6 °F 10.7 °F 14.0 °F 86% 29.92 in 0.8 mi NNE 4.6 mph - N/A Snow Snow
4:15 AM 17.6 °F 7.3 °F 14.0 °F 86% 29.90 in 1.5 mi NNE 8.1 mph - N/A Snow Light Snow
4:35 AM 17.6 °F 6.4 °F 14.0 °F 86% 29.90 in 2.0 mi NNE 9.2 mph - N/A Snow Light Snow
4:55 AM 17.6 °F 8.2 °F 14.0 °F 86% 29.91 in 1.5 mi NNE 6.9 mph - N/A Snow Light Snow
5:15 AM 17.6 °F 8.2 °F 15.8 °F 93% 29.90 in 1.5 mi NNE 6.9 mph - N/A Snow Light Snow
5:35 AM 17.6 °F 7.3 °F 15.8 °F 93% 29.89 in 1.2 mi NNE 8.1 mph - N/A Snow Light Snow
5:55 AM 17.6 °F 8.2 °F 15.8 °F 93% 29.90 in 1.5 mi North 6.9 mph - N/A Snow Light Snow
6:15 AM 17.6 °F 8.2 °F 15.8 °F 93% 29.90 in 1.8 mi North 6.9 mph - N/A Snow Light Snow
6:35 AM 19.4 °F 9.5 °F 15.8 °F 86% 29.91 in 1.0 mi North 8.1 mph - N/A Snow Snow
6:55 AM 17.6 °F 7.3 °F 15.8 °F 93% 29.87 in 2.5 mi NNE 8.1 mph - N/A Snow Light Snow
7:15 AM 17.6 °F 7.3 °F 15.8 °F 93% 29.87 in 4.0 mi NNE 8.1 mph - N/A Snow Light Snow
7:35 AM 17.6 °F 6.4 °F 15.8 °F 93% 29.90 in 7.0 mi North 9.2 mph - N/A Snow Light Snow
7:55 AM 17.6 °F 7.3 °F 14.0 °F 86% 29.91 in 7.0 mi North 8.1 mph - N/A   Clear
8:15 AM 17.6 °F 5.7 °F 14.0 °F 86% 29.91 in 5.0 mi North 10.4 mph - N/A Snow Light Snow
8:35 AM 17.6 °F 5.7 °F 14.0 °F 86% 29.89 in 1.8 mi North 10.4 mph - N/A Snow Light Snow
8:55 AM 17.6 °F 7.3 °F 14.0 °F 86% 29.89 in 1.8 mi North 8.1 mph - N/A Snow Light Snow
9:15 AM 17.6 °F 8.2 °F 14.0 °F 86% 29.91 in 4.0 mi North 6.9 mph - N/A Snow Light Snow
9:35 AM 17.6 °F 9.3 °F 14.0 °F 86% 29.91 in 3.0 mi North 5.8 mph - N/A   Clear
9:55 AM 19.4 °F 11.5 °F 15.8 °F 86% 29.92 in 1.5 mi NNW 5.8 mph - N/A Snow Light Snow
10:15 AM 19.4 °F 8.6 °F 14.0 °F 80% 29.92 in 2.0 mi North 9.2 mph - N/A Snow Light Snow
10:35 AM 19.4 °F 8.6 °F 14.0 °F 80% 29.94 in 10.0 mi NNW 9.2 mph - N/A   Clear
10:55 AM 19.4 °F 8.6 °F 15.8 °F 86% 29.93 in 1.5 mi NNW 9.2 mph - N/A Snow Light Snow
11:15 AM 19.4 °F 7.2 °F 15.8 °F 86% 29.92 in 0.8 mi NNW 11.5 mph - N/A Snow Light Snow
11:35 AM 19.4 °F 6.6 °F 15.8 °F 86% 29.93 in 2.0 mi NNW 12.7 mph - N/A Snow Light Snow
11:55 AM 19.4 °F 7.9 °F 15.8 °F 86% 29.91 in 4.0 mi NNW 10.4 mph - N/A Snow Light Snow
12:15 PM 21.2 °F 10.1 °F 15.8 °F 80% 29.92 in 5.0 mi NNW 10.4 mph - N/A   Haze
12:35 PM 21.2 °F 10.9 °F 15.8 °F 80% 29.91 in 10.0 mi NNW 9.2 mph - N/A   Clear
12:55 PM 21.2 °F 10.9 °F 17.6 °F 86% 29.93 in 10.0 mi NW 9.2 mph - N/A   Clear
1:15 PM 21.2 °F 10.9 °F 15.8 °F 80% 29.93 in 10.0 mi NW 9.2 mph - N/A   Clear
1:35 PM 23.0 °F 13.1 °F 17.6 °F 80% 29.93 in 10.0 mi NW 9.2 mph - N/A   Clear
1:55 PM 23.0 °F 13.9 °F 17.6 °F 80% 29.94 in 10.0 mi NW 8.1 mph - N/A   Clear
2:15 PM 23.0 °F 13.1 °F 17.6 °F 80% 29.95 in 10.0 mi NW 9.2 mph - N/A   Clear
2:35 PM 24.8 °F 14.0 °F 17.6 °F 74% 29.94 in 7.0 mi NW 11.5 mph - N/A   Clear
2:55 PM 23.0 °F 12.4 °F 17.6 °F 80% 29.95 in 2.0 mi NNW 10.4 mph - N/A Snow Light Snow
3:15 PM 23.0 °F 13.1 °F 17.6 °F 80% 29.96 in 4.0 mi NNW 9.2 mph - N/A   Haze
3:35 PM 24.8 °F 16.1 °F 17.6 °F 74% 29.98 in 5.0 mi NNW 8.1 mph - N/A   Haze
3:55 PM 24.8 °F 15.3 °F 17.6 °F 74% 29.98 in 5.0 mi NNW 9.2 mph - N/A Snow Light Snow
4:15 PM 24.8 °F 16.1 °F 19.4 °F 80% 29.99 in 3.0 mi NNW 8.1 mph - N/A Snow Light Snow
4:35 PM 24.8 °F 14.0 °F 19.4 °F 80% 30.00 in 7.0 mi NW 11.5 mph - N/A   Clear
4:55 PM 23.0 °F 12.4 °F 17.6 °F 80% 30.01 in 10.0 mi NNW 10.4 mph - N/A   Clear
5:15 PM 24.8 °F 16.9 °F 17.6 °F 74% 30.02 in 10.0 mi NNW 6.9 mph - N/A   Clear
5:35 PM 23.0 °F 14.7 °F 17.6 °F 80% 30.03 in 10.0 mi NNW 6.9 mph - N/A   Clear
5:55 PM 23.0 °F 13.9 °F 17.6 °F 80% 30.04 in 10.0 mi NW 8.1 mph - N/A   Clear
6:15 PM 23.0 °F 14.7 °F 17.6 °F 80% 30.06 in 10.0 mi NW 6.9 mph - N/A   Clear
6:35 PM 23.0 °F 14.7 °F 17.6 °F 80% 30.07 in 10.0 mi NW 6.9 mph - N/A   Clear
6:55 PM 23.0 °F 13.1 °F 17.6 °F 80% 30.08 in 10.0 mi NW 9.2 mph - N/A   Clear
7:15 PM 23.0 °F 11.1 °F 15.8 °F 74% 30.08 in 10.0 mi NNW 12.7 mph - N/A   Clear
7:35 PM 21.2 °F 10.1 °F 15.8 °F 80% 30.10 in 10.0 mi NNW 10.4 mph - N/A   Clear
7:55 PM 21.2 °F 10.1 °F 15.8 °F 80% 30.11 in 10.0 mi NNW 10.4 mph - N/A   Clear
8:15 PM 21.2 °F 9.5 °F 15.8 °F 80% 30.11 in 10.0 mi NNW 11.5 mph - N/A   Clear
8:35 PM 21.2 °F 11.7 °F 14.0 °F 74% 30.12 in 10.0 mi NNW 8.1 mph - N/A   Clear
8:55 PM 19.4 °F 8.6 °F 14.0 °F 80% 30.12 in 10.0 mi NNW 9.2 mph - N/A   Clear
9:15 PM 19.4 °F 9.5 °F 15.8 °F 86% 30.14 in 10.0 mi NNW 8.1 mph - N/A   Clear
9:35 PM 21.2 °F 11.7 °F 15.8 °F 80% 30.14 in 10.0 mi NNW 8.1 mph - N/A   Clear
9:55 PM 21.2 °F 10.1 °F 15.8 °F 80% 30.14 in 10.0 mi NNW 10.4 mph - N/A   Clear
10:15 PM 21.2 °F 9.5 °F 15.8 °F 80% 30.14 in 10.0 mi NNW 11.5 mph - N/A   Clear
10:35 PM 21.2 °F 8.9 °F 15.8 °F 80% 30.16 in 10.0 mi NNW 12.7 mph - N/A   Clear
10:55 PM 19.4 °F 6.0 °F 12.2 °F 74% 30.16 in 10.0 mi NW 13.8 mph 19.6 mph N/A   Clear
11:15 PM 19.4 °F 6.0 °F 12.2 °F 74% 30.17 in 10.0 mi NNW 13.8 mph - N/A   Clear
11:35 PM 17.6 °F 3.2 °F 10.4 °F 73% 30.18 in 10.0 mi NNW 15.0 mph - N/A   Clear
11:55 PM 17.6 °F 3.7 °F 8.6 °F 68% 30.18 in 10.0 mi NNW 13.8 mph - N/A   Scattered Clouds